Location: Evol�ne
(46.1135°N, 7.4944°E)
Time: 15:46:48
(UTC+00:00)

Daily predictions for brighter satellites

Satellite Brightness Start Highest point End
(mag) Time Altitude Azimuth Time Altitude Azimuth Time Altitude Azimuth
Cosmos 2074 Rocket 4.1 17:35:43 10° S 17:41:51 60° E 17:48:00 10° NNE
Cosmos 2154 Rocket 4.4 17:36:31 10° SSE 17:42:12 39° E 17:47:53 10° NNE
YAOGAN 1 2.9 17:39:33 10° SE 17:43:39 43° ENE 17:47:45 10° N
APEX 2.4 17:43:40 10° NNW 17:46:29 83° WSW 17:49:11 10° SSE
CZ-4 R/B 4.5 17:44:56 10° SSE 17:49:05 85° ENE 17:53:16 10° NNW
COSMO-SKYMED 1 2.7 17:45:49 10° NNE 17:50:12 87° WNW 17:54:32 10° SSW
GP-B 4.3 17:47:44 10° SE 17:51:03 21° ENE 17:54:21 10° NNE
Cosmos 1992 Rocket 4.4 17:49:29 10° S 17:54:21 41° ESE 17:59:16 10° NE
SL-16 R/B 2.2 17:49:15 10° SSW 17:54:51 67° ESE 18:00:29 10° NNE
Cosmos 2263 Rocket 2.9 17:49:42 10° NNW 17:55:10 60° WSW 18:00:37 10° S
Cosmos 1437 3.8 17:52:32 10° NNW 17:55:20 45° W 17:58:05 10° S
Cosmos 968 Rocket 3.5 17:50:50 10° NNW 17:56:07 76° ENE 18:01:23 10° SSE
ARGOS 3.4 17:51:34 10° SE 17:56:45 49° ENE 18:01:59 10° N
Cosmos 1486 Rocket 4.0 17:54:35 10° NNW 17:59:53 72° ENE 18:05:10 10° SSE
USA 234 4.1 17:54:20 10° ENE 17:59:56 29° SE 18:05:28 10° S
Cosmos 1515 3.8 17:56:33 10° N 18:00:19 53° ENE 18:04:03 10° SSE
Okean 1 3.5 17:56:27 10° N 18:00:24 52° ENE 18:04:21 10° SSE
Cosmos 1633 Rocket 3.0 17:57:56 10° S 18:02:20 75° E 18:06:47 10° NNE
Cosmos 2184 Rocket 4.0 17:56:16 10° S 18:02:25 82° E 18:08:40 10° N
SeaSat 1 3.1 17:58:34 10° NE 18:03:05 35° ESE 18:07:33 10° S
Okean 1-7 4.2 18:00:18 10° NNE 18:03:47 23° ENE 18:07:14 10° ESE
Cosmos 1707 Rocket 4.0 17:59:33 10° NNW 18:03:56 68° W 18:08:14 10° S
CZ-4 R/B 1.3 18:04:11 10° SSE 18:08:02 89° WNW 18:11:58 10° NNW
H-2A R/B 2.2 18:02:36 10° SSE 18:08:03 84° ENE 18:13:32 10° NNW
CZ-2C R/B 3.1 18:03:12 10° NNE 18:08:20 39° E 18:13:18 10° SSE
USA 305 4.3 18:06:58 10° WNW 18:10:47 30° N 18:14:35 10° NE
SAR-Lupe-4 3.8 18:07:27 10° NNE 18:10:55 45° E 18:14:22 10° S
IRS-1C Rocket 4.4 18:06:37 10° S 18:11:52 75° WSW 18:17:11 10° NNW
Gbstr 26 Del rocket 3.9 18:09:16 10° W 18:13:30 47° N 18:18:27 11° ENE
Cosmos 2237 4.4 18:08:40 10° S 18:14:11 51° ESE 18:19:44 10° NE
Meteor 1-20 Rocket 4.3 18:09:13 10° SSW 18:14:40 80° W 18:20:12 10° N
SL-4 R/B 2.7 18:12:56 10° WNW 18:16:15 34° N 18:18:38 15° ENE
USA 307 4.4 18:18:20 10° WNW 18:22:08 29° N 18:25:41 11° NE
ATLAS CENTAUR R/B 1.3 18:20:25 10° SSW 18:23:52 43° ESE 18:26:57 13° NE
USA 186 3.3 18:25:07 13° NE 18:25:07 13° NE 18:25:46 10° NNE
FALCON 9 DEB 3.4 18:20:50 10° NW 18:24:13 54° NNE 18:26:13 22° E
USA 306 4.4 18:21:49 10° WNW 18:25:34 29° N 18:28:56 12° NE
Cosmos 1354 Rocket 4.0 18:21:22 10° NNW 18:26:35 61° ENE 18:31:45 10° SE
Okean-O 3.0 18:23:27 10° S 18:27:52 70° WSW 18:32:19 10° NNW
Cosmos 44 Rocket 3.7 18:22:45 10° NW 18:27:58 70° WSW 18:33:07 10° SSE
ERS-2 2.0 18:24:34 10° NNE 18:28:14 82° ESE 18:31:53 10° SSW
CSL-04 Rocket 3.7 18:23:41 10° SSE 18:29:12 73° ENE 18:34:43 10° N
Cosmos 1844 Rocket 2.7 18:24:45 10° NNW 18:30:18 61° ENE 18:35:48 10° SE
SAR-Lupe-1 4.0 18:26:46 10° NNE 18:30:23 83° ESE 18:33:58 10° SSW
Cosmos 2084 Rocket 3.5 18:26:04 10° NW 18:30:25 85° SW 18:34:56 10° SE
CSL-04 Debris 4.1 18:25:07 10° SSE 18:30:33 80° ENE 18:36:03 10° NNW
USA 308 4.4 18:29:03 10° WNW 18:32:48 29° N 18:35:51 14° NE
Cosmos 1666 3.3 18:30:17 10° SSE 18:33:35 31° E 18:36:55 10° NNE
HJ-1C 3.6 18:32:31 10° S 18:35:49 72° WSW 18:39:08 10° NNW
Cosmos 1503 Rocket 3.9 18:31:36 10° NNW 18:36:50 85° ENE 18:41:59 10° SSE
Cosmos 2341 Rocket 4.1 18:31:23 10° SSE 18:37:29 55° E 18:43:36 10° NNE
Meteor 1-5 Rocket 4.2 18:32:41 10° SSE 18:37:50 50° E 18:43:09 10° NNE
PSLV R/B 4.4 18:35:16 10° N 18:39:19 61° WNW 18:43:19 10° SSW
Cosmos 1470 Rocket 3.8 18:37:06 10° SSW 18:41:33 75° W 18:46:02 10° N
Cosmos 1844 3.7 18:36:22 10° NNW 18:42:07 63° ENE 18:46:58 14° SE
Okean 3 4.4 18:38:46 10° NNE 18:42:25 27° ENE 18:42:56 27° E
CZ-4B R/B 4.3 18:41:02 10° NNW 18:43:10 18° WNW 18:45:17 10° WSW
Cosmos 2360 Rocket 2.1 18:38:35 10° SSW 18:44:12 74° ESE 18:49:53 10° NNE
Ariane Rocket 3.6 18:42:04 21° ESE 18:44:42 36° ENE 18:49:20 10° N
Cosmos 2278 Rocket 3.6 18:43:04 10° N 18:47:18 21° NE 18:48:36 19° ENE
Cosmos 1500 3.4 18:48:34 10° SSW 18:52:16 70° W 18:56:01 10° N
Meteor 2-4 Rocket 3.8 18:48:18 10° NNW 18:54:10 88° W 19:00:06 10° S
Cosmos 1703 Rocket 3.4 18:49:58 10° N 18:54:23 76° E 18:58:44 10° SSE
Cosmos 2333 Rocket 2.6 18:49:11 10° S 18:54:24 40° ESE 18:59:42 10° NE
Cosmos 2218 Rocket 4.2 18:49:57 10° SSE 18:56:05 50° E 19:02:14 10° NNE
SL-08 RB Rocket 4.0 18:51:59 10° S 18:56:27 69° WSW 19:01:01 10° NNW
Cosmos 1689 Rocket 4.0 18:54:05 10° N 18:56:41 31° WNW 18:59:16 10° SW
Cosmos 1933 Rocket 3.9 18:58:09 10° SSW 19:02:29 67° W 19:06:52 10° N
Aureole 2 Rocket 4.2 19:03:07 10° NW 19:05:09 21° WSW 19:06:52 12° SSW
Resurs 01 Rocket 3.1 19:12:41 23° NE 19:12:41 23° NE 19:15:04 10° N
Cosmos 2242 Rocket 4.1 19:07:56 10° NNW 19:12:24 62° W 19:16:47 10° S
Cosmos 864 Rocket 4.4 19:06:49 10° S 19:12:50 62° E 19:18:58 10° NNE
Cosmos 2322 Rocket 3.4 19:09:08 10° SW 19:14:25 41° NW 19:19:44 10° NNE
Lacrosse 4 Rocket 2.6 19:12:05 10° S 19:14:28 29° SSE 19:14:28 29° SSE
Abrixas rocket 3.7 19:14:45 10° WNW 19:16:07 26° WNW 19:16:07 26° WNW
Cosmos 1959 Rocket 4.3 19:12:13 10° S 19:18:15 70° E 19:24:21 10° NNE
SME Rocket 4.0 19:10:24 10° NNE 19:18:36 70° ESE 19:23:51 10° S
Cosmos 192 4.2 19:16:44 10° SSW 19:21:36 73° ESE 19:26:31 10° NNE
SJ-6B 2.9 19:22:30 45° S 19:23:42 81° WSW 19:27:47 10° NNW
COSMOS 2428 2.8 19:18:57 10° S 19:24:24 50° ESE 19:24:51 49° E
ASTEX 1 3.2 19:22:49 10° N 19:27:44 76° E 19:30:11 30° S
GP-B 4.4 19:23:54 10° SSW 19:28:04 40° W 19:32:16 10° NNW
MOS 1 4.2 19:25:33 30° SSE 19:28:31 83° ENE 19:34:13 10° NNW
Meteor 1-23 Rocket 4.2 19:24:27 10° N 19:29:58 57° ENE 19:30:27 55° E
Cosmos 2219 Rocket 2.0 19:25:50 10° SSW 19:31:20 68° ESE 19:36:56 10° NNE
Meteor 1-11 Rocket 3.6 19:25:47 10° S 19:31:31 82° E 19:37:09 10° NNE
Cosmos 1241 Rocket 4.5 19:27:50 10° NW 19:34:28 86° WSW 19:36:55 42° SSE
OBJECT-B 2.5 19:36:24 30° NNW 19:36:24 30° NNW 19:38:14 10° NNW
Resurs 1-3 3.7 19:38:47 64° N 19:38:47 64° N 19:42:35 10° N
SL-16 R/B 4.4 19:34:54 10° WSW 19:39:28 24° NW 19:44:04 10° N
SeaSat 1 3.8 19:36:02 10° NNE 19:40:36 39° NW 19:45:09 10° WSW
SJ 16-02 2.5 19:36:53 10° N 19:39:34 32° NNE 19:39:34 32° NNE
USA 234 3.2 19:39:54 30° NE 19:43:26 88° NW 19:49:59 10° SW
Cosmos 1066 Rocket 4.2 19:38:09 10° NNW 19:43:54 88° WSW 19:45:41 47° S
CZ-2C R/B 4.3 19:43:40 10° N 19:48:31 33° WNW 19:53:15 10° SW
Meteor 2-20 Rocket 4.5 19:43:30 10° N 19:49:08 58° ENE 19:49:08 58° ENE
Cosmos 2322 3.9 19:45:43 10° SW 19:51:25 70° WNW 19:57:09 10° NNE
USA 305 4.4 19:47:45 10° NW 19:50:56 30° N 19:50:56 30° N
BREEZE-M DEB (TANK) 3.0 19:48:44 10° WNW 19:51:09 58° NNW 19:51:09 58° NNW
SL-4 R/B 3.8 19:52:36 10° WNW 19:54:13 25° WNW 19:54:13 25° WNW
Gbstr 26 Del rocket 4.0 19:56:23 10° WNW 20:00:59 51° N 20:00:59 51° N
ATLAS CENTAUR R/B 3.4 20:00:05 10° W 20:02:55 21° NW 20:03:11 21° NNW
SPOT 3 Rocket 4.1 20:18:37 54° NW 20:18:37 54° NW 20:22:45 10° NNW
NOSS 3-3 (A) 4.4 20:10:43 10° NW 20:18:13 76° NE 20:18:42 73° E
NOSS 3-3 (C) 4.4 20:10:49 10° NW 20:18:19 75° NE 20:18:47 73° E
Cosmos 2360 Rocket 4.4 20:24:26 10° W 20:28:49 23° NW 20:33:14 10° N
Cosmos 2278 Rocket 2.9 20:26:23 10° NNW 20:30:28 49° NW 20:30:28 49° NW
Cosmos 2333 Rocket 3.5 20:33:28 10° WSW 20:38:42 37° NW 20:44:01 10° NNE
Resurs 01 Rocket 4.1 20:50:14 19° NW 20:50:14 19° NW 20:51:45 10° NNW
Cosmos 1943 Rocket 4.2 20:46:25 10° N 20:48:24 19° N 20:48:24 19° N
Cosmos 2219 Rocket 4.2 21:11:22 10° W 21:15:50 24° NW 21:20:19 10° N
USA 234 4.4 21:27:15 39° NW 21:27:15 39° NW 21:32:07 10° W
